CCA9889 ZUXC-ZUUU

Flight info

Callsign CCA9889
Flight time 0h 41m
Altitude 17000
Route ZPXC DCT ZUUU
Aircraft A320/M-SDE1GH/LB1

Departure

Time 2026-05-06 13:47
Airport Xichang Qingshan Airport (ZUXC)

Arrival

Time 2026-05-06 14:28
Airport Chengdu Shuangliu International Airport (ZUUU)
Time Latitude Longitude Altitude Speed Heading
2026-05-06 13:26 27.97847 102.18757 5082 ft 0 kts 268°
2026-05-06 13:28 27.97847 102.18765 5082 ft 6 kts 268°
2026-05-06 13:28 27.97848 102.18799 5082 ft 2 kts 275°
2026-05-06 13:28 27.97846 102.18812 5082 ft 2 kts 294°
2026-05-06 13:28 27.97839 102.18822 5082 ft 2 kts 340°
2026-05-06 13:29 27.97828 102.18825 5082 ft 2 kts 355°
2026-05-06 13:29 27.97817 102.18826 5082 ft 2 kts 358°
2026-05-06 13:29 27.97815 102.18826 5082 ft 0 kts 358°
2026-05-06 13:38 27.97816 102.18826 5082 ft 0 kts 358°
2026-05-06 13:38 27.97825 102.18825 5082 ft 3 kts 358°
2026-05-06 13:38 27.97875 102.18823 5082 ft 11 kts 358°
2026-05-06 13:38 27.97964 102.18821 5082 ft 12 kts 358°
2026-05-06 13:39 27.98015 102.18817 5082 ft 6 kts 347°
2026-05-06 13:39 27.98037 102.18792 5082 ft 4 kts 277°
2026-05-06 13:39 27.98036 102.18741 5082 ft 9 kts 269°
2026-05-06 13:39 27.98034 102.18664 5083 ft 8 kts 268°
2026-05-06 13:40 27.98053 102.18601 5083 ft 9 kts 337°
2026-05-06 13:40 27.98093 102.18597 5083 ft 0 kts 358°
2026-05-06 13:40 27.98095 102.18597 5083 ft 2 kts 358°
2026-05-06 13:41 27.98121 102.18596 5083 ft 6 kts 358°
2026-05-06 13:41 27.98177 102.18594 5083 ft 11 kts 358°
2026-05-06 13:41 27.98284 102.18589 5083 ft 20 kts 357°
2026-05-06 13:41 27.98473 102.18583 5082 ft 27 kts 358°
2026-05-06 13:42 27.98674 102.18575 5082 ft 29 kts 358°
2026-05-06 13:42 27.98857 102.18568 5083 ft 27 kts 358°
2026-05-06 13:42 27.99053 102.18561 5083 ft 29 kts 359°
2026-05-06 13:42 27.99255 102.18553 5083 ft 23 kts 358°
2026-05-06 13:43 27.99404 102.18548 5083 ft 20 kts 358°
2026-05-06 13:43 27.99535 102.18543 5083 ft 18 kts 357°
2026-05-06 13:43 27.99661 102.18538 5083 ft 19 kts 357°
2026-05-06 13:43 27.99797 102.18533 5082 ft 22 kts 358°
2026-05-06 13:44 27.99972 102.18525 5083 ft 28 kts 358°
2026-05-06 13:44 28.00142 102.18518 5082 ft 27 kts 358°
2026-05-06 13:44 28.00308 102.18512 5082 ft 16 kts 358°
2026-05-06 13:44 28.00387 102.18509 5082 ft 9 kts 358°
2026-05-06 13:45 28.00440 102.18507 5083 ft 7 kts 358°
2026-05-06 13:45 28.00497 102.18464 5084 ft 6 kts 268°
2026-05-06 13:45 28.00495 102.18402 5084 ft 10 kts 268°
2026-05-06 13:46 28.00456 102.18371 5084 ft 0 kts 177°
2026-05-06 13:46 28.00405 102.18373 5084 ft 32 kts 178°
2026-05-06 13:46 27.99942 102.18391 5084 ft 100 kts 178°
2026-05-06 13:46 27.99032 102.18428 5084 ft 161 kts 178°
2026-05-06 13:47 27.97796 102.18475 5532 ft 187 kts 178°
2026-05-06 13:47 27.96454 102.18528 6253 ft 198 kts 178°
2026-05-06 13:47 27.95047 102.18582 7022 ft 205 kts 178°
2026-05-06 13:47 27.93594 102.18638 7750 ft 216 kts 178°
2026-05-06 13:48 27.92018 102.18698 8411 ft 237 kts 178°
2026-05-06 13:48 27.90302 102.18763 9160 ft 254 kts 178°
2026-05-06 13:48 27.88478 102.18751 9911 ft 272 kts 186°
2026-05-06 13:48 27.86608 102.18187 10509 ft 293 kts 201°
2026-05-06 13:49 27.84650 102.17303 11150 ft 312 kts 201°
2026-05-06 13:49 27.82541 102.16492 11828 ft 328 kts 189°
2026-05-06 13:49 27.80228 102.16573 12555 ft 342 kts 166°
2026-05-06 13:49 27.78041 102.17702 13269 ft 354 kts 144°
2026-05-06 13:50 27.76298 102.19739 13835 ft 370 kts 122°
2026-05-06 13:50 27.75322 102.22456 14475 ft 381 kts 101°
2026-05-06 13:50 27.75253 102.25471 15154 ft 391 kts 81°
2026-05-06 13:50 27.76083 102.28424 15696 ft 404 kts 63°
2026-05-06 13:51 27.77591 102.31166 16075 ft 418 kts 56°
2026-05-06 13:51 27.79231 102.33945 16486 ft 431 kts 56°
2026-05-06 13:51 27.80894 102.36812 16909 ft 442 kts 57°
2026-05-06 13:51 27.82594 102.39751 17355 ft 451 kts 57°
2026-05-06 13:52 27.84331 102.42744 17800 ft 459 kts 57°
2026-05-06 13:52 27.86101 102.45781 18260 ft 466 kts 57°
2026-05-06 13:52 27.87898 102.48862 18680 ft 473 kts 57°
2026-05-06 13:52 27.89653 102.51878 19070 ft 437 kts 57°
2026-05-06 13:53 27.91297 102.54702 19431 ft 431 kts 57°
2026-05-06 13:53 27.92970 102.57574 19531 ft 442 kts 57°
2026-05-06 13:53 27.94656 102.60468 19619 ft 439 kts 57°
2026-05-06 13:53 27.96329 102.63342 19700 ft 437 kts 57°
2026-05-06 13:54 27.98001 102.66217 19788 ft 438 kts 57°
2026-05-06 13:54 27.99682 102.69107 19890 ft 441 kts 57°
2026-05-06 13:54 28.01366 102.71999 19982 ft 439 kts 57°
2026-05-06 13:54 28.03047 102.74888 20073 ft 441 kts 57°
2026-05-06 13:55 28.04739 102.77796 20070 ft 443 kts 57°
2026-05-06 13:55 28.06437 102.80716 20052 ft 443 kts 57°
2026-05-06 13:55 28.08124 102.83619 20033 ft 440 kts 57°
2026-05-06 13:55 28.09807 102.86514 20010 ft 438 kts 57°
2026-05-06 13:56 28.11481 102.89393 19992 ft 438 kts 57°
2026-05-06 13:56 28.13159 102.92279 19974 ft 440 kts 57°
2026-05-06 13:56 28.14848 102.95185 19962 ft 441 kts 57°
2026-05-06 13:56 28.16528 102.98077 19950 ft 438 kts 57°
2026-05-06 13:57 28.18177 103.00917 19938 ft 435 kts 57°
2026-05-06 13:57 28.19836 103.03773 19919 ft 435 kts 57°
2026-05-06 13:57 28.21512 103.06656 19906 ft 440 kts 57°
2026-05-06 13:57 28.23195 103.09554 19900 ft 440 kts 57°
2026-05-06 13:58 28.24877 103.12452 19893 ft 440 kts 57°
2026-05-06 13:58 28.26558 103.15349 19886 ft 439 kts 57°
2026-05-06 13:58 28.27694 103.17306 19872 ft 440 kts 57°
2026-05-06 13:58 28.29380 103.20211 19860 ft 441 kts 57°
2026-05-06 13:59 28.31047 103.23081 19852 ft 441 kts 57°
2026-05-06 13:59 28.32755 103.26023 19843 ft 441 kts 57°
2026-05-06 13:59 28.34416 103.28890 19839 ft 439 kts 57°
2026-05-06 13:59 28.36087 103.31772 19834 ft 435 kts 57°
2026-05-06 14:00 28.37746 103.34631 19822 ft 434 kts 57°
2026-05-06 14:00 28.39415 103.37508 19814 ft 439 kts 57°
2026-05-06 14:00 28.41104 103.40393 19810 ft 436 kts 54°
2026-05-06 14:00 28.43117 103.42950 19796 ft 434 kts 41°
2026-05-06 14:01 28.45600 103.44900 19798 ft 435 kts 27°
2026-05-06 14:01 28.48429 103.46069 19812 ft 434 kts 13°
2026-05-06 14:01 28.51392 103.46781 19831 ft 436 kts 12°
2026-05-06 14:01 28.54349 103.47492 19789 ft 432 kts 12°
2026-05-06 14:02 28.57282 103.48229 19736 ft 433 kts 12°
2026-05-06 14:02 28.60228 103.48976 19700 ft 434 kts 12°
2026-05-06 14:02 28.63178 103.49719 19634 ft 438 kts 12°
2026-05-06 14:02 28.66227 103.50486 19484 ft 460 kts 12°
2026-05-06 14:03 28.69420 103.51291 19351 ft 479 kts 12°
2026-05-06 14:03 28.72736 103.52130 19218 ft 497 kts 12°
2026-05-06 14:03 28.76164 103.52996 19074 ft 513 kts 12°
2026-05-06 14:03 28.79698 103.53888 18938 ft 527 kts 12°
2026-05-06 14:04 28.83255 103.54785 18788 ft 530 kts 12°
2026-05-06 14:04 28.86860 103.55696 18622 ft 530 kts 12°
2026-05-06 14:04 28.90464 103.56609 18447 ft 533 kts 12°
2026-05-06 14:04 28.94092 103.57527 18267 ft 534 kts 12°
2026-05-06 14:05 28.97712 103.58443 18093 ft 532 kts 12°
2026-05-06 14:05 29.01332 103.59358 17912 ft 535 kts 12°
2026-05-06 14:05 29.04978 103.60280 17734 ft 538 kts 12°
2026-05-06 14:05 29.08620 103.61204 17555 ft 535 kts 12°
2026-05-06 14:06 29.12241 103.62123 17381 ft 534 kts 12°
2026-05-06 14:06 29.15869 103.63042 17204 ft 534 kts 12°
2026-05-06 14:06 29.19499 103.63961 17027 ft 533 kts 12°
2026-05-06 14:06 29.23122 103.64879 16851 ft 535 kts 12°
2026-05-06 14:07 29.26766 103.65804 16583 ft 535 kts 12°
2026-05-06 14:07 29.30395 103.66727 16321 ft 535 kts 12°
2026-05-06 14:07 29.34034 103.67651 16064 ft 536 kts 12°
2026-05-06 14:07 29.37673 103.68574 15812 ft 536 kts 12°
2026-05-06 14:08 29.41311 103.69497 15576 ft 535 kts 12°
2026-05-06 14:08 29.44935 103.70418 15317 ft 521 kts 12°
2026-05-06 14:08 29.48292 103.71273 15017 ft 469 kts 12°
2026-05-06 14:08 29.51331 103.72047 14727 ft 428 kts 12°
2026-05-06 14:09 29.54129 103.72759 14440 ft 396 kts 12°
2026-05-06 14:09 29.56790 103.73435 14171 ft 392 kts 12°
2026-05-06 14:09 29.59454 103.74113 13919 ft 392 kts 12°
2026-05-06 14:09 29.62104 103.74789 13669 ft 389 kts 12°
2026-05-06 14:10 29.64746 103.75463 13418 ft 388 kts 12°
2026-05-06 14:10 29.67381 103.76134 13177 ft 387 kts 12°
2026-05-06 14:10 29.70007 103.76802 12933 ft 386 kts 12°
2026-05-06 14:10 29.72631 103.77470 12699 ft 392 kts 12°
2026-05-06 14:11 29.75370 103.78172 12487 ft 425 kts 13°
2026-05-06 14:11 29.78319 103.79137 12273 ft 456 kts 17°
2026-05-06 14:11 29.81431 103.80278 12049 ft 482 kts 18°
2026-05-06 14:11 29.84704 103.81480 11807 ft 505 kts 18°
2026-05-06 14:12 29.88128 103.82724 11548 ft 526 kts 17°
2026-05-06 14:12 29.91678 103.84005 11268 ft 543 kts 17°
2026-05-06 14:12 29.95287 103.85314 10994 ft 544 kts 17°
2026-05-06 14:12 29.98899 103.86629 10913 ft 544 kts 17°
2026-05-06 14:13 30.02510 103.87941 10888 ft 544 kts 17°
2026-05-06 14:13 30.06131 103.89253 10872 ft 545 kts 17°
2026-05-06 14:13 30.09748 103.90564 10853 ft 545 kts 17°
2026-05-06 14:13 30.13365 103.91880 10815 ft 545 kts 17°
2026-05-06 14:14 30.16985 103.93199 10776 ft 545 kts 17°
2026-05-06 14:14 30.20598 103.94514 10749 ft 545 kts 17°
2026-05-06 14:14 30.24218 103.95828 10723 ft 545 kts 17°
2026-05-06 14:14 30.27844 103.97145 10695 ft 546 kts 17°
2026-05-06 14:15 30.31413 103.98456 10653 ft 545 kts 18°
2026-05-06 14:15 30.35023 103.99801 10634 ft 545 kts 18°
2026-05-06 14:15 30.38631 104.01149 10560 ft 546 kts 18°
2026-05-06 14:15 30.42243 104.02508 10478 ft 546 kts 18°
2026-05-06 14:16 30.45854 104.03872 10399 ft 546 kts 18°
2026-05-06 14:16 30.49438 104.05222 10333 ft 546 kts 18°
2026-05-06 14:16 30.53053 104.06580 10269 ft 546 kts 18°
2026-05-06 14:16 30.56665 104.07938 10195 ft 546 kts 18°
2026-05-06 14:17 30.60153 104.09255 10054 ft 494 kts 18°
2026-05-06 14:17 30.63227 104.10417 9866 ft 438 kts 18°
2026-05-06 14:17 30.65978 104.11455 9676 ft 395 kts 18°
2026-05-06 14:17 30.68478 104.12397 9477 ft 362 kts 18°
2026-05-06 14:18 30.70776 104.13264 9283 ft 334 kts 18°
2026-05-06 14:18 30.72921 104.14076 9031 ft 314 kts 18°
2026-05-06 14:18 30.74943 104.14841 8727 ft 298 kts 18°
2026-05-06 14:18 30.76876 104.15571 8433 ft 286 kts 18°
2026-05-06 14:19 30.78742 104.16275 8139 ft 278 kts 18°
2026-05-06 14:19 30.80561 104.16961 7838 ft 271 kts 18°
2026-05-06 14:19 30.82323 104.17627 7549 ft 263 kts 18°
2026-05-06 14:19 30.84046 104.18279 7246 ft 257 kts 18°
2026-05-06 14:20 30.85747 104.18846 6939 ft 252 kts
2026-05-06 14:20 30.87444 104.18573 6625 ft 246 kts 336°
2026-05-06 14:20 30.88735 104.17341 6340 ft 240 kts 304°
2026-05-06 14:20 30.89383 104.15579 6101 ft 235 kts 288°
2026-05-06 14:21 30.89882 104.13822 5945 ft 222 kts 288°
2026-05-06 14:21 30.90322 104.12148 5805 ft 217 kts 280°
2026-05-06 14:21 30.90113 104.10418 5643 ft 220 kts 244°
2026-05-06 14:21 30.89066 104.09138 5542 ft 224 kts 210°
2026-05-06 14:22 30.87626 104.08436 5493 ft 226 kts 200°
2026-05-06 14:22 30.86152 104.07792 5438 ft 227 kts 201°
2026-05-06 14:22 30.84684 104.07120 5358 ft 224 kts 201°
2026-05-06 14:22 30.83253 104.06444 5272 ft 220 kts 202°
2026-05-06 14:23 30.81851 104.05790 5184 ft 213 kts 201°
2026-05-06 14:23 30.80518 104.05191 5121 ft 200 kts 201°
2026-05-06 14:23 30.79236 104.04622 5043 ft 196 kts 201°
2026-05-06 14:23 30.77975 104.04058 4971 ft 193 kts 201°
2026-05-06 14:24 30.76729 104.03491 4888 ft 191 kts 201°
2026-05-06 14:24 30.75515 104.02921 4814 ft 185 kts 202°
2026-05-06 14:24 30.74341 104.02363 4704 ft 180 kts 202°
2026-05-06 14:24 30.73198 104.01823 4563 ft 173 kts 202°
2026-05-06 14:25 30.72097 104.01308 4397 ft 170 kts 202°
2026-05-06 14:25 30.70997 104.00796 4238 ft 169 kts 201°
2026-05-06 14:25 30.69928 104.00300 4057 ft 162 kts 202°
2026-05-06 14:25 30.68918 103.99821 3841 ft 151 kts 202°
2026-05-06 14:26 30.67949 103.99363 3615 ft 149 kts 202°
2026-05-06 14:26 30.66995 103.98913 3324 ft 151 kts 202°
2026-05-06 14:26 30.66027 103.98461 3059 ft 149 kts 201°
2026-05-06 14:26 30.65057 103.98016 2838 ft 150 kts 201°
2026-05-06 14:27 30.64093 103.97580 2623 ft 147 kts 201°
2026-05-06 14:27 30.63151 103.97158 2412 ft 143 kts 201°
2026-05-06 14:27 30.62227 103.96727 2216 ft 143 kts 202°
2026-05-06 14:27 30.61302 103.96295 2036 ft 144 kts 201°
2026-05-06 14:28 30.60367 103.95864 1855 ft 146 kts 201°
2026-05-06 14:28 30.59421 103.95427 1712 ft 145 kts 201°
2026-05-06 14:28 30.58542 103.95022 1648 ft 120 kts 201°
2026-05-06 14:28 30.58008 103.94775 1648 ft 49 kts 202°
2026-05-06 14:29 30.57790 103.94671 1648 ft 31 kts 201°
2026-05-06 14:29 30.57581 103.94606 1646 ft 31 kts 185°
2026-05-06 14:29 30.57390 103.94623 1647 ft 22 kts 169°
2026-05-06 14:29 30.57319 103.94703 1647 ft 13 kts 112°
2026-05-06 14:30 30.57275 103.94833 1647 ft 22 kts 111°
2026-05-06 14:30 30.57256 103.94919 1647 ft 6 kts 81°
2026-05-06 14:30 30.57263 103.94973 1647 ft 11 kts 80°
2026-05-06 14:30 30.57270 103.95025 1647 ft 0 kts 82°